[[{"header":{"parameterUnit":"m.s-1","parameterCategory":1,"la1":30.2991,"la2":30.254,"lo1":-89.0895,"lo2":-89.0444,"dy":0.0017,"dx":0.0017,"nx":28,"ny":28,"refTime":"2026-02-17T09:00:00:Z","depth":0,"parameterNumber":2,"parameterNumberName":"U-component_of_WINDS"},"data":[0,0,0,0,0,0,0,0,0,0,0,0,0,0,0,0,0,0,0,0,0,0,0,0,0,0,0,0,0,0,0,0,0,0,0,0,0,0,0,0,0,0,0,0,0,0,0,0,0,0,0,0,0,0,0,0,0,0,-3.594,-3.5941,0,-3.6046,-3.6048,-3.6049,-3.6076,-3.6075,-3.6075,-3.6074,-3.6182,-3.6185,-3.6188,0,0,0,0,0,0,0,0,0,0,0,0,0,-3.5759,-3.5762,-3.594,-3.5941,-3.5943,-3.6046,-3.6048,-3.6049,-3.6076,-3.6075,-3.6075,-3.6074,-3.618,-3.6185,-3.6189,0,0,0,0,0,0,0,0,0,0,0,0,0,-3.5849,-3.5763,-3.594,-3.5969,-3.5972,-3.6046,-3.6048,-3.6049,-3.6076,-3.6075,-3.6074,-3.6073,-3.6179,-3.6184,-3.6189,-3.6241,0,0,-3.6205,-3.6208,0,0,0,0,0,0,0,0,-3.5844,-3.5855,-3.5963,-3.5967,-3.5971,-3.6047,-3.6023,-3.6114,-3.6077,-3.6037,-3.6074,-3.6073,-3.6138,-3.6146,-3.6168,-3.6246,-3.6251,-3.6206,-3.6209,-3.6211,-3.6213,0,0,0,0,0,0,0,-3.5837,-3.5851,-3.5982,-3.5965,-3.5969,-3.5976,-3.5988,-3.6041,-3.6091,-3.604,-3.6042,-3.6055,-3.6139,-3.6163,-3.6171,-3.6253,-3.6206,-3.621,-3.6213,-3.6215,-3.6378,-3.6379,0,0,0,0,0,0,-3.5826,-3.5846,-3.5979,-3.5985,-3.5904,-3.598,-3.5993,-3.6024,-3.6091,-3.61,-3.6055,-3.6056,-3.6155,-3.6165,-3.6175,-3.6239,-3.6211,-3.6216,-3.6219,-3.6377,-3.6378,-3.638,0,0,0,0,0,0,-3.5822,-3.5838,-3.5974,-3.5916,-3.5934,-3.5984,-3.6018,-3.6026,-3.605,-3.6102,-3.6111,-3.607,-3.6154,-3.6167,-3.6225,-3.6243,-3.6218,-3.6223,-3.6375,-3.6377,-3.6379,-3.6369,0,0,0,0,0,0,-3.5817,-3.5836,-3.5857,-3.5916,-3.5937,-3.6022,-3.6019,-3.6029,-3.6059,-3.606,-3.6119,-3.6127,-3.6155,-3.6217,-3.623,-3.625,-3.6227,-3.6374,-3.6376,-3.6378,-3.6367,-3.637,-3.6372,0,0,0,0,0,-3.5811,-3.585,-3.5858,-3.5874,-3.5964,-3.6024,-3.6035,-3.6066,-3.606,-3.6081,-3.6115,-3.6126,-3.624,-3.6222,-3.6237,-3.6259,-3.6373,-3.6376,-3.6378,-3.6366,-3.6369,-3.6372,0,0,0,0,0,0,-3.579,-3.5858,-3.5868,-3.5927,-3.5969,-3.6028,-3.6055,-3.6068,-3.6113,-3.6112,-3.6148,-3.6161,-3.6215,-3.6243,-3.6223,-3.6313,-3.6306,-3.6312,-3.6292,-3.6295,-3.6297,-3.6289,-3.6231,0,0,0,0,0,-3.5793,-3.5836,-3.5893,-3.594,-3.5961,-3.6004,-3.6031,-3.6052,-3.6097,-3.6114,-3.6153,-3.6195,-3.6241,-3.627,-3.6315,-3.6372,-3.6385,-3.6395,-3.6397,-3.6399,-3.6403,-3.6434,-3.6439,-3.6388,-3.6388,-3.6388,0,0,-3.5798,-3.5841,-3.5866,-3.5937,-3.5972,-3.6015,-3.6019,-3.6065,-3.6097,-3.6121,-3.6177,-3.6207,-3.6257,-3.6314,-3.6342,-3.6339,-3.642,-3.6402,-3.6403,-3.6406,-3.6438,-3.6442,-3.6446,-3.639,-3.639,-3.639,0,0,-3.583,-3.5867,-3.591,-3.5945,-3.5998,-3.6027,-3.6038,-3.6095,-3.6115,-3.6172,-3.6191,-3.623,-3.6308,-3.6343,-3.637,-3.6416,-3.6427,-3.643,-3.644,-3.6471,-3.6475,-3.6479,-3.6494,-3.6499,-3.6434,-3.6434,-3.6434,0,-3.583,-3.5896,-3.593,-3.5975,-3.6005,-3.603,-3.6073,-3.6106,-3.6171,-3.6191,-3.6188,-3.6286,-3.6322,-3.6387,-3.6398,-3.6421,-3.6433,-3.6422,-3.6472,-3.6476,-3.648,-3.6494,-3.65,-3.6434,-3.6434,-3.6434,-3.6434,0,-3.5893,-3.5939,-3.5967,-3.6029,-3.6063,-3.6107,-3.6147,-3.6177,-3.6195,-3.6223,-3.6281,-3.6325,-3.6379,-3.6396,-3.6414,-3.6464,-3.6461,-3.6465,-3.6458,-3.6484,-3.6498,-3.6504,-3.6434,-3.6434,-3.6434,-3.6434,0,0,-3.5913,-3.5994,-3.6004,-3.6032,-3.6093,-3.6129,-3.6174,-3.6227,-3.6252,-3.6296,-3.6334,-3.64,-3.6404,-3.6435,-3.6457,-3.6484,-3.6516,-3.6485,-3.6486,-3.6488,-3.6573,-3.6568,-3.6574,-3.6525,-3.6526,-3.6527,-3.6568,0,-3.5951,-3.6032,-3.6064,-3.613,-3.6172,-3.6197,-3.6236,-3.6277,-3.6306,-3.6346,-3.6378,-3.6423,-3.6425,-3.6444,-3.6472,-3.6506,-3.6533,-3.6504,-3.6559,-3.6561,-3.6544,-3.6582,-3.6578,-3.6614,-3.6574,-3.6575,-3.6576,0,-3.6006,-3.6051,-3.6121,-3.6176,-3.6195,-3.623,-3.6281,-3.6319,-3.6367,-3.6386,-3.6421,-3.6442,-3.649,-3.6482,-3.6547,-3.6527,-3.6552,-3.6572,-3.6574,-3.6579,-3.6568,-3.6586,-3.6627,-3.6631,-3.6585,-3.6585,-3.6584,0,-3.6011,-3.609,-3.6141,-3.6165,-3.6232,-3.6255,-3.6284,-3.6331,-3.6361,-3.6406,-3.6425,-3.6475,-3.6502,-3.654,-3.6573,-3.6565,-3.6635,-3.6631,-3.6652,-3.6651,-3.6664,-3.6662,-3.6707,-3.6683,-3.6683,-3.6682,-3.6682,0,-3.6049,-3.609,-3.6145,-3.6176,-3.6224,-3.626,-3.6306,-3.6336,-3.6378,-3.6415,-3.644,-3.6475,-3.6518,-3.6558,-3.6585,-3.6634,-3.6647,-3.6663,-3.6669,-3.666,-3.6657,-3.6675,-3.6672,-3.6684,-3.6684,-3.6683,-3.6683,0,-3.6062,-3.6101,-3.6158,-3.6217,-3.6233,-3.6265,-3.6315,-3.6346,-3.6377,-3.6424,-3.6437,-3.6485,-3.6534,-3.6571,-3.6634,-3.6652,-3.6705,-3.6712,-3.6688,-3.6691,-3.6709,-3.6706,-3.6765,-3.6775,-3.6746,-3.6746,-3.6746,0,-3.6083,-3.6115,-3.6178,-3.6205,-3.6234,-3.6277,-3.6308,-3.6345,-3.6376,-3.6433,-3.6458,-3.6508,-3.655,-3.6627,-3.6667,-3.6716,-3.6724,-3.6741,-3.6731,-3.672,-3.6722,-3.6719,-3.6722,-3.6741,-3.6742,-3.6742,-3.6742,0,-3.6115,-3.6132,-3.6176,-3.6226,-3.6262,-3.6303,-3.6345,-3.6366,-3.6411,-3.6444,-3.6494,-3.6527,-3.6592,-3.6642,-3.6695,-3.6724,-3.674,-3.6745,-3.6752,-3.6742,-3.6726,-3.6733,-3.669,-3.6743,-3.6743,-3.6743,-3.6743,-3.6743,-3.6132,-3.6161,-3.621,-3.6257,-3.6293,-3.6331,-3.6363,-3.6398,-3.6441,-3.6496,-3.6516,-3.6568,-3.6615,-3.6688,-3.6718,-3.6758,-3.6759,-3.6769,-3.6772,-3.6773,-3.6772,-3.6721,-3.6768,-3.6768,-3.6768,-3.6768,-3.6768,0,-3.6164,-3.6196,-3.624,-3.6297,-3.6334,-3.6348,-3.6394,-3.6424,-3.647,-3.6512,-3.6554,-3.6611,-3.666,-3.6704,-3.6754,-3.6778,-3.6787,-3.679,-3.6788,-3.6794,-3.6769,-3.6757,-3.6782,-3.6782,-3.6782,-3.6782,-3.6782,-3.6782,-3.6184,-3.6235,-3.6258,-3.6327,-3.6359,-3.641,-3.6436,-3.6471,-3.6505,-3.6569,-3.6609,-3.6638,-3.6681,-3.6735,-3.678,-3.6792,-3.6808,-3.681,-3.6823,-3.6798,-3.6796,-3.6794,-3.6783,-3.6813,-3.6813,-3.6845,-3.6845,-3.6845]},{"header":{"parameterUnit":"m.s-1","parameterCategory":1,"la1":30.2991,"la2":30.254,"lo1":-89.0895,"lo2":-89.0444,"dy":0.0017,"dx":0.0017,"nx":28,"ny":28,"refTime":"2026-02-17T09:00:00:Z","depth":0,"parameterNumber":3,"parameterNumberName":"V-component_of_WINDS"},"data":[0,0,0,0,0,0,0,0,0,0,0,0,0,0,0,0,0,0,0,0,0,0,0,0,0,0,0,0,0,0,0,0,0,0,0,0,0,0,0,0,0,0,0,0,0,0,0,0,0,0,0,0,0,0,0,0,0,0,3.086,3.0862,0,3.1014,3.1016,3.1018,3.1072,3.1072,3.1071,3.107,3.1226,3.1231,3.1235,0,0,0,0,0,0,0,0,0,0,0,0,0,3.0612,3.0617,3.086,3.0862,3.0864,3.1014,3.1016,3.1018,3.1072,3.1071,3.1071,3.107,3.1225,3.123,3.1236,0,0,0,0,0,0,0,0,0,0,0,0,0,3.0738,3.0618,3.0859,3.0909,3.0915,3.1014,3.1016,3.1019,3.1072,3.1071,3.1071,3.107,3.1223,3.123,3.1237,3.1297,0,0,3.1258,3.1261,0,0,0,0,0,0,0,0,3.0731,3.0748,3.09,3.0905,3.0912,3.1023,3.0986,3.1112,3.1073,3.1012,3.107,3.1069,3.1159,3.1171,3.1202,3.1304,3.1311,3.1259,3.1263,3.1266,3.1268,0,0,0,0,0,0,0,3.0722,3.0741,3.0921,3.0902,3.091,3.0924,3.094,3.101,3.1089,3.1018,3.1022,3.104,3.1162,3.1195,3.1206,3.1313,3.1258,3.1265,3.1269,3.1272,3.1478,3.1479,0,0,0,0,0,0,3.0706,3.0734,3.0916,3.0926,3.0818,3.0929,3.0948,3.0988,3.1088,3.1102,3.104,3.1042,3.1184,3.1198,3.1212,3.1292,3.1266,3.1272,3.1276,3.1477,3.1478,3.148,0,0,0,0,0,0,3.07,3.0721,3.091,3.0831,3.0856,3.0934,3.0979,3.0992,3.1025,3.1105,3.1119,3.1059,3.1184,3.1202,3.1277,3.1298,3.1276,3.1282,3.1475,3.1477,3.1479,3.1452,0,0,0,0,0,0,3.0693,3.0719,3.0742,3.0831,3.086,3.0972,3.098,3.0996,3.1037,3.104,3.1127,3.114,3.1184,3.1266,3.1284,3.1308,3.1287,3.1474,3.1476,3.1478,3.1451,3.1452,3.1454,0,0,0,0,0,3.0684,3.0727,3.0743,3.0765,3.0891,3.0973,3.0989,3.104,3.1038,3.1063,3.1116,3.1137,3.1293,3.1273,3.1294,3.132,3.1472,3.1475,3.1478,3.145,3.1452,3.1454,0,0,0,0,0,0,3.0636,3.0739,3.0758,3.0831,3.0893,3.0982,3.1014,3.1039,3.1102,3.1102,3.1162,3.1181,3.1252,3.1293,3.1269,3.1386,3.1384,3.1391,3.1356,3.1359,3.136,3.1348,3.1293,0,0,0,0,0,3.0635,3.0693,3.078,3.0836,3.0866,3.0935,3.0972,3.1006,3.1072,3.1098,3.1156,3.1219,3.1283,3.1323,3.1385,3.1458,3.1479,3.1486,3.1487,3.1488,3.1493,3.1539,3.1544,3.1489,3.1489,3.1489,0,0,3.0631,3.0695,3.0727,3.0828,3.088,3.094,3.0956,3.1017,3.1063,3.1107,3.1182,3.1227,3.1302,3.1376,3.1412,3.1413,3.1514,3.1492,3.1492,3.1497,3.1542,3.1547,3.1552,3.1491,3.149,3.149,0,0,3.0656,3.0709,3.0764,3.0817,3.0896,3.0942,3.0955,3.1041,3.1073,3.115,3.1186,3.1241,3.1348,3.1401,3.1441,3.1491,3.1515,3.151,3.1517,3.156,3.1564,3.1568,3.1589,3.1595,3.1515,3.1515,3.1515,0,3.0642,3.0733,3.0788,3.085,3.0894,3.0939,3.0996,3.1044,3.1139,3.1169,3.117,3.1309,3.1361,3.1451,3.1464,3.1494,3.1513,3.15,3.1559,3.1564,3.1569,3.1589,3.1596,3.1514,3.1514,3.1514,3.1514,0,3.0713,3.0776,3.0811,3.0904,3.0953,3.1011,3.1076,3.1118,3.1149,3.1196,3.1275,3.1341,3.142,3.1444,3.1473,3.1539,3.1537,3.1548,3.1547,3.1572,3.1592,3.16,3.1513,3.1513,3.1513,3.1514,0,0,3.071,3.0836,3.0848,3.0893,3.0986,3.1036,3.1098,3.1176,3.1213,3.1278,3.1332,3.1424,3.1436,3.1483,3.1519,3.1557,3.1596,3.1563,3.1566,3.1569,3.1676,3.1668,3.1676,3.1612,3.1614,3.1615,3.167,0,3.0748,3.0861,3.0914,3.1004,3.1065,3.1111,3.1166,3.1229,3.1275,3.1334,3.1385,3.145,3.1459,3.1488,3.1528,3.1583,3.1618,3.1579,3.1665,3.1667,3.1646,3.1686,3.1677,3.1725,3.1678,3.1679,3.168,0,3.0807,3.0875,3.0971,3.1061,3.1088,3.1136,3.1215,3.127,3.1344,3.1375,3.143,3.1466,3.1534,3.1529,3.1626,3.1598,3.1637,3.1669,3.1672,3.1683,3.1675,3.1699,3.1742,3.1749,3.1693,3.1692,3.1691,0,3.0797,3.0912,3.0986,3.1023,3.1129,3.1162,3.1207,3.1281,3.1326,3.1395,3.1426,3.1501,3.1542,3.16,3.1656,3.1647,3.1748,3.1747,3.1777,3.1776,3.1796,3.1794,3.1847,3.1819,3.1819,3.1818,3.1818,0,3.0835,3.0892,3.0984,3.1029,3.1096,3.1158,3.1223,3.1272,3.1338,3.1395,3.1439,3.1491,3.1562,3.1623,3.1668,3.1743,3.176,3.1788,3.1799,3.1785,3.1782,3.1811,3.181,3.182,3.182,3.182,3.1819,0,3.0835,3.0898,3.0982,3.1077,3.1103,3.1148,3.123,3.1276,3.1326,3.1398,3.1418,3.1496,3.1571,3.1634,3.1731,3.1762,3.184,3.1852,3.1816,3.1822,3.1849,3.1846,3.1924,3.1938,3.1898,3.1899,3.1899,0,3.0854,3.09,3.1002,3.1044,3.109,3.1156,3.1204,3.1267,3.1315,3.1406,3.1442,3.1521,3.1588,3.1706,3.1772,3.1848,3.1863,3.1886,3.1875,3.186,3.1866,3.1863,3.187,3.1886,3.1886,3.1886,3.1887,0,3.0884,3.0914,3.0981,3.1061,3.1117,3.1183,3.1249,3.1281,3.1357,3.1409,3.1488,3.154,3.1643,3.1721,3.1805,3.1853,3.1883,3.189,3.1901,3.1887,3.1865,3.1879,3.182,3.1887,3.1887,3.1887,3.1887,3.1887,3.0896,3.094,3.102,3.1095,3.1152,3.1214,3.1264,3.1322,3.1389,3.1479,3.1512,3.1594,3.1671,3.1787,3.1836,3.1901,3.1904,3.192,3.1924,3.1928,3.1927,3.1854,3.1916,3.1916,3.1916,3.1916,3.1917,0,3.0929,3.0984,3.1052,3.1145,3.1205,3.123,3.1306,3.1354,3.1426,3.1496,3.1562,3.1654,3.1732,3.1805,3.1887,3.1926,3.1942,3.1945,3.1943,3.1954,3.1918,3.1901,3.1931,3.1931,3.1931,3.1931,3.1931,3.1931,3.0953,3.1031,3.1072,3.118,3.1235,3.1316,3.1358,3.1416,3.1473,3.1575,3.1641,3.1689,3.1761,3.1849,3.1923,3.1942,3.1971,3.1971,3.1994,3.1959,3.1956,3.1954,3.1939,3.1976,3.1976,3.2026,3.2026,3.2027]}]]